sat.trackr.live / text

‹ back to catalog

STARLINK-32137

NORAD 60155 · 2024-120W

PAYLOAD ACTIVE UNKNOWN

§ Identity

Operator
Country
US
Launch date
2024-06-27
Launch site
AFETR
Launch vehicle
Mass (kg)
RCS (m²)

Purposes: comms

External: N2YO · Heavens-Above · Gunter

§ Orbital elements

Epoch: 2026-09-21T21:21:53.330976Z

Period
93.85 min
Inclination
53.1591°
Eccentricity
0.0001195
Mean motion
15.34391603 rev/d
Perigee alt
461.9 km
Apogee alt
463.5 km
Semi-major
6,840.9 km
B*
3.4564e-6
RAAN
125.1675°
Arg perigee
94.6658°
Mean anomaly
265.4481°
Rev number
12,646

§ Raw data

STARLINK-321371 60155U 24120W   26264.89020059 -.00000259  00000+0  34564-5 0  99922 60155  53.1591 125.1675 0001195  94.6658 265.4481 15.34391603126468

JSON: /api/v1/satellites/60155 · /tle

For live sub-satellite position, see the globe view (requires WebGL).

§ Visibility from observer

Set your observer location to see the next 7 days of passes ≥ 10°. The values pass through the URL so the page stays shareable.

No JS? Fill the form by hand. The geolocation button needs JavaScript.